Flag for India Weather past 2 weeks in Firozpur, Punjab, India

Now
91 °F

Clear.


Feels Like: 90 °F
Forecast: 69 / 93 °F
Wind: 6 mph from Southwest

Location: Lahore Airport

Current Time: Oct 21, 2014 at 4:20:00 PM

Latest Report: Oct 21, 2014 at 3:59 PM


Visibility: 4 mi

Pressure: 29.95 "Hg

Humidity: 32%

Dew point: 57 °F

Location of FirozpurLocation

Historic Weather in Firozpur — Graph

°F

Firozpur temperature yesterday

Maximum temperature yesterday: 90 °F (at 2:29 PM)
Minimum temperature yesterday: 66 °F (at 5:25 AM)
Average temperature yesterday: 80 °F

Past Weeks' High & Low Weather Summary

 TemperatureHumidityPressure
High95 °F (Oct 6, 2:55 PM)94% (Oct 7, 10:55 PM)30.09 "Hg (Oct 7, 10:55 PM)
Low61 °F (Oct 15, 6:25 AM)28% (Oct 12, 4:25 PM)29.65 "Hg (Oct 15, 12:55 AM)
Average78 °F60%29.92 "Hg
* Reported Oct 6 2:55 PM — Oct 21 3:29 PM, Firozpur, Weather by CustomWeather, © 2014

Note: Actual official high and low records may vary slightly from our data, if they occured in-between our weather recording intervals... More about our weather records

Advertising

Firozpur weather history for previous 24 hours

 ConditionsComfort  
Time TempWeatherWind HumidityBarometerVisibility
3:29 PM
Oct 21
91 °FClear.7 mph32%29.95 "Hg4 mi
2:55 PM91 °FClear.7 mph32%29.95 "Hg4 mi
2:25 PM91 °FClear.6 mph32%29.98 "Hg4 mi
1:59 PM88 °FHaze.6 mph33%29.98 "Hg3 mi
1:29 PM88 °FHaze.6 mph33%29.98 "Hg3 mi
12:59 PM88 °FHaze.3 mph35%30.01 "Hg2 mi
12:29 PM88 °FHaze.3 mph35%30.01 "Hg2 mi
11:59 AM86 °FHaze.3 mph38%30.04 "Hg2 mi
11:29 AM86 °FHaze.3 mph38%30.04 "Hg2 mi
10:59 AM82 °FHaze.3 mph48%30.04 "Hg2 mi
10:25 AM82 °FHaze.3 mph42%30.04 "Hg2 mi
9:59 AM81 °FClear.No wind51%30.04 "Hg2 mi
9:25 AM77 °FClear.No wind57%30.04 "Hg2 mi
8:30 AM73 °FClear.No wind65%30.01 "Hg1 mi
8:00 AM70 °FClear.No wind73%30.01 "Hg1 mi
7:30 AM68 °FFog.No wind78%29.98 "Hg2 mi
6:30 AM68 °FClear.No wind78%29.98 "Hg2 mi
5:29 AM68 °FClear.No wind83%N/A2 mi
5:00 AM68 °FClear.No wind83%N/A2 mi
4:30 AM68 °FClear.No wind73%N/A2 mi
3:55 AM70 °FClear.No wind78%29.98 "Hg2 mi
3:25 AM70 °FClear.No wind78%29.98 "Hg2 mi
2:55 AM72 °FClear.No wind78%29.98 "Hg2 mi
2:25 AM72 °FClear.No wind78%29.98 "Hg2 mi
1:55 AM72 °FClear.No wind73%29.98 "Hg2 mi
1:25 AM72 °FClear.No wind73%29.98 "Hg2 mi
12:55 AM73 °FClear.No wind69%29.98 "Hg2 mi
12:25 AM73 °FClear.No wind50%29.98 "Hg2 mi
11:55 PM
Oct 20
75 °FClear.No wind61%29.98 "Hg2 mi
11:25 PM75 °FClear.No wind61%29.98 "Hg2 mi
10:55 PM77 °FClear.No wind57%29.98 "Hg2 mi
10:25 PM77 °FClear.No wind57%29.98 "Hg2 mi
9:55 PM77 °FClear.3 mph57%29.98 "Hg2 mi
9:25 PM79 °FClear.No wind51%29.98 "Hg2 mi
9:00 PM79 °FHaze.5 mph51%29.98 "Hg2 mi
8:30 PM81 °FHaze.5 mph48%29.98 "Hg2 mi
8:00 PM81 °FHaze.No wind45%29.98 "Hg2 mi
7:25 PM81 °FHaze.5 mph45%29.95 "Hg3 mi
6:55 PM82 °FHaze.5 mph42%29.95 "Hg3 mi
6:25 PM84 °FHaze.7 mph40%29.92 "Hg3 mi
5:55 PM84 °FClear.7 mph37%29.92 "Hg4 mi
5:25 PM86 °FClear.7 mph35%29.92 "Hg4 mi
4:55 PM88 °FClear.7 mph33%29.92 "Hg4 mi
4:25 PM90 °FClear.9 mph31%29.92 "Hg4 mi
Weather by CustomWeather, © 2014

See weather overviewHow to use our weather pages